Year,Month,Day,Hour,Minute,Value (Times are PST for temperature in C)
2015,08,19,00,00,19.70
2015,08,19,00,01,19.70
2015,08,19,00,02,19.70
2015,08,19,00,03,19.70
2015,08,19,00,04,19.70
2015,08,19,00,05,19.60
2015,08,19,00,06,19.60
2015,08,19,00,07,19.60
2015,08,19,00,08,19.50
2015,08,19,00,09,19.50
2015,08,19,00,10,19.40
2015,08,19,00,11,19.40
2015,08,19,00,12,19.30
2015,08,19,00,13,19.30
2015,08,19,00,14,19.20
2015,08,19,00,15,19.20
2015,08,19,00,16,19.10
2015,08,19,00,17,19.10
2015,08,19,00,18,18.90
2015,08,19,00,19,18.80
2015,08,19,00,20,18.70
2015,08,19,00,21,18.50
2015,08,19,00,22,18.40
2015,08,19,00,23,18.40
2015,08,19,00,24,18.50
2015,08,19,00,25,18.50
2015,08,19,00,26,18.60
2015,08,19,00,27,18.70
2015,08,19,00,28,18.70
2015,08,19,00,29,18.80
2015,08,19,00,30,18.80
2015,08,19,00,31,18.80
2015,08,19,00,32,18.90
2015,08,19,00,33,18.90
2015,08,19,00,34,18.90
2015,08,19,00,35,18.90
2015,08,19,00,36,18.90
2015,08,19,00,37,18.90
2015,08,19,00,38,18.90
2015,08,19,00,39,18.90
2015,08,19,00,40,18.80
2015,08,19,00,41,18.80
2015,08,19,00,42,18.80
2015,08,19,00,43,18.80
2015,08,19,00,44,18.80
2015,08,19,00,45,18.80
2015,08,19,00,46,18.80
2015,08,19,00,47,18.80
2015,08,19,00,48,18.80
2015,08,19,00,49,18.80
2015,08,19,00,50,18.80
2015,08,19,00,51,18.80
2015,08,19,00,52,18.80
2015,08,19,00,53,18.80
2015,08,19,00,54,18.80
2015,08,19,00,55,18.80
2015,08,19,00,56,18.70
2015,08,19,00,57,18.70
2015,08,19,00,58,18.70
2015,08,19,00,59,18.70
2015,08,19,01,00,18.70
2015,08,19,01,01,18.60
2015,08,19,01,02,18.60
2015,08,19,01,03,18.60
2015,08,19,01,04,18.50
2015,08,19,01,05,18.50
2015,08,19,01,06,18.40
2015,08,19,01,07,18.40
2015,08,19,01,08,18.40
2015,08,19,01,09,18.30
2015,08,19,01,10,18.30
2015,08,19,01,11,18.30
2015,08,19,01,12,18.20
2015,08,19,01,13,18.20
2015,08,19,01,14,18.20
2015,08,19,01,15,18.20
2015,08,19,01,16,18.20
2015,08,19,01,17,18.10
2015,08,19,01,18,18.10
2015,08,19,01,19,18.00
2015,08,19,01,20,18.00
2015,08,19,01,21,17.90
2015,08,19,01,22,17.90
2015,08,19,01,23,17.80
2015,08,19,01,24,17.80
2015,08,19,01,25,17.80
2015,08,19,01,26,17.80
2015,08,19,01,27,17.80
2015,08,19,01,28,17.80
2015,08,19,01,29,17.90
2015,08,19,01,30,17.90
2015,08,19,01,31,17.90
2015,08,19,01,32,17.90
2015,08,19,01,33,18.00
2015,08,19,01,34,18.00
2015,08,19,01,35,18.00
2015,08,19,01,36,18.10
2015,08,19,01,37,18.10
2015,08,19,01,38,18.10
2015,08,19,01,39,18.10
2015,08,19,01,40,18.10
2015,08,19,01,41,18.10
2015,08,19,01,42,18.00
2015,08,19,01,43,17.90
2015,08,19,01,44,17.90
2015,08,19,01,45,17.90
2015,08,19,01,46,17.80
2015,08,19,01,47,17.80
2015,08,19,01,48,17.80
2015,08,19,01,49,17.90
2015,08,19,01,50,17.90
2015,08,19,01,51,18.00
2015,08,19,01,52,18.10
2015,08,19,01,53,18.10
2015,08,19,01,54,18.10
2015,08,19,01,55,18.20
2015,08,19,01,56,18.20
2015,08,19,01,57,18.30
2015,08,19,01,58,18.30
2015,08,19,01,59,18.30
2015,08,19,02,00,18.40
2015,08,19,02,01,18.40
2015,08,19,02,02,18.40
2015,08,19,02,03,18.40
2015,08,19,02,04,18.40
2015,08,19,02,05,18.40
2015,08,19,02,06,18.40
2015,08,19,02,07,18.30
2015,08,19,02,08,18.30
2015,08,19,02,09,18.30
2015,08,19,02,10,18.30
2015,08,19,02,11,18.20
2015,08,19,02,12,18.20
2015,08,19,02,13,18.20
2015,08,19,02,14,18.20
2015,08,19,02,15,18.10
2015,08,19,02,16,18.10
2015,08,19,02,17,18.00
2015,08,19,02,18,18.00
2015,08,19,02,19,17.90
2015,08,19,02,20,17.90
2015,08,19,02,21,17.90
2015,08,19,02,22,17.90
2015,08,19,02,23,17.80
2015,08,19,02,24,17.80
2015,08,19,02,25,17.80
2015,08,19,02,26,17.70
2015,08,19,02,27,17.70
2015,08,19,02,28,17.60
2015,08,19,02,29,17.60
2015,08,19,02,30,17.60
2015,08,19,02,31,17.60
2015,08,19,02,32,17.50
2015,08,19,02,33,17.50
2015,08,19,02,34,17.50
2015,08,19,02,35,17.50
2015,08,19,02,36,17.40
2015,08,19,02,37,17.40
2015,08,19,02,38,17.40
2015,08,19,02,39,17.40
2015,08,19,02,40,17.40
2015,08,19,02,41,17.40
2015,08,19,02,42,17.40
2015,08,19,02,43,17.40
2015,08,19,02,44,17.30
2015,08,19,02,45,17.30
2015,08,19,02,46,17.30
2015,08,19,02,47,17.30
2015,08,19,02,48,17.30
2015,08,19,02,49,17.20
2015,08,19,02,50,17.20
2015,08,19,02,51,17.10
2015,08,19,02,52,17.00
2015,08,19,02,53,17.00
2015,08,19,02,54,16.90
2015,08,19,02,55,16.90
2015,08,19,02,56,16.90
2015,08,19,02,57,16.80
2015,08,19,02,58,16.80
2015,08,19,02,59,16.80
2015,08,19,03,00,16.70
2015,08,19,03,01,16.70
2015,08,19,03,02,16.70
2015,08,19,03,03,16.70
2015,08,19,03,04,16.70
2015,08,19,03,05,16.70
2015,08,19,03,06,16.70
2015,08,19,03,07,16.70
2015,08,19,03,08,16.60
2015,08,19,03,09,16.60
2015,08,19,03,10,16.60
2015,08,19,03,11,16.60
2015,08,19,03,12,16.60
2015,08,19,03,13,16.60
2015,08,19,03,14,16.60
2015,08,19,03,15,16.60
2015,08,19,03,16,16.60
2015,08,19,03,17,16.60
2015,08,19,03,18,16.60
2015,08,19,03,19,16.60
2015,08,19,03,20,16.60
2015,08,19,03,21,16.60
2015,08,19,03,22,16.50
2015,08,19,03,23,16.50
2015,08,19,03,24,16.50
2015,08,19,03,25,16.50
2015,08,19,03,26,16.50
2015,08,19,03,27,16.50
2015,08,19,03,28,16.50
2015,08,19,03,29,16.40
2015,08,19,03,30,16.40
2015,08,19,03,31,16.40
2015,08,19,03,32,16.40
2015,08,19,03,33,16.40
2015,08,19,03,34,16.30
2015,08,19,03,35,16.30
2015,08,19,03,36,16.30
2015,08,19,03,37,16.30
2015,08,19,03,38,16.20
2015,08,19,03,39,16.20
2015,08,19,03,40,16.20
2015,08,19,03,41,16.20
2015,08,19,03,42,16.10
2015,08,19,03,43,16.10
2015,08,19,03,44,16.00
2015,08,19,03,45,15.90
2015,08,19,03,46,15.90
2015,08,19,03,47,15.80
2015,08,19,03,48,15.70
2015,08,19,03,49,15.70
2015,08,19,03,50,15.70
2015,08,19,03,51,15.60
2015,08,19,03,52,15.60
2015,08,19,03,53,15.50
2015,08,19,03,54,15.50
2015,08,19,03,55,15.50
2015,08,19,03,56,15.40
2015,08,19,03,57,15.40
2015,08,19,03,58,15.40
2015,08,19,03,59,15.40
2015,08,19,04,00,15.30
2015,08,19,04,01,15.30
2015,08,19,04,02,15.30
2015,08,19,04,03,15.30
2015,08,19,04,04,15.30
2015,08,19,04,05,15.30
2015,08,19,04,06,15.30
2015,08,19,04,07,15.30
2015,08,19,04,08,15.30
2015,08,19,04,09,15.30
2015,08,19,04,10,15.30
2015,08,19,04,11,15.30
2015,08,19,04,12,15.30
2015,08,19,04,13,15.20
2015,08,19,04,14,15.20
2015,08,19,04,15,15.20
2015,08,19,04,16,15.20
2015,08,19,04,17,15.20
2015,08,19,04,18,15.10
2015,08,19,04,19,15.10
2015,08,19,04,20,15.10
2015,08,19,04,21,15.10
2015,08,19,04,22,15.10
2015,08,19,04,23,15.10
2015,08,19,04,24,15.10
2015,08,19,04,25,15.10
2015,08,19,04,26,15.10
2015,08,19,04,27,15.00
2015,08,19,04,28,15.00
2015,08,19,04,29,14.90
2015,08,19,04,30,14.90
2015,08,19,04,31,14.90
2015,08,19,04,32,14.90
2015,08,19,04,33,14.80
2015,08,19,04,34,14.80
2015,08,19,04,35,14.80
2015,08,19,04,36,14.80
2015,08,19,04,37,14.80
2015,08,19,04,38,14.80
2015,08,19,04,39,14.80
2015,08,19,04,40,14.80
2015,08,19,04,41,14.80
2015,08,19,04,42,14.70
2015,08,19,04,43,14.70
2015,08,19,04,44,14.70
2015,08,19,04,45,14.70
2015,08,19,04,46,14.70
2015,08,19,04,47,14.70
2015,08,19,04,48,14.70
2015,08,19,04,49,14.60
2015,08,19,04,50,14.60
2015,08,19,04,51,14.60
2015,08,19,04,52,14.50
2015,08,19,04,53,14.50
2015,08,19,04,54,14.40
2015,08,19,04,55,14.40
2015,08,19,04,56,14.40
2015,08,19,04,57,14.30
2015,08,19,04,58,14.30
2015,08,19,04,59,14.30
2015,08,19,05,00,14.30
2015,08,19,05,01,14.20
2015,08,19,05,02,14.20
2015,08,19,05,03,14.20
2015,08,19,05,04,14.20
2015,08,19,05,05,14.20
2015,08,19,05,06,14.20
2015,08,19,05,07,14.20
2015,08,19,05,08,14.20
2015,08,19,05,09,14.20
2015,08,19,05,10,14.20
2015,08,19,05,11,14.20
2015,08,19,05,12,14.20
2015,08,19,05,13,14.20
2015,08,19,05,14,14.20
2015,08,19,05,15,14.10
2015,08,19,05,16,14.00
2015,08,19,05,17,14.00
2015,08,19,05,18,13.90
2015,08,19,05,19,13.90
2015,08,19,05,20,13.80
2015,08,19,05,21,13.70
2015,08,19,05,22,13.70
2015,08,19,05,23,13.70
2015,08,19,05,24,13.70
2015,08,19,05,25,13.60
2015,08,19,05,26,13.60
2015,08,19,05,27,13.60
2015,08,19,05,28,13.60
2015,08,19,05,29,13.60
2015,08,19,05,30,13.60
2015,08,19,05,31,13.60
2015,08,19,05,32,13.50
2015,08,19,05,33,13.50
2015,08,19,05,34,13.50
2015,08,19,05,35,13.50
2015,08,19,05,36,13.50
2015,08,19,05,37,13.60
2015,08,19,05,38,13.60
2015,08,19,05,39,13.60
2015,08,19,05,40,13.60
2015,08,19,05,41,13.60
2015,08,19,05,42,13.60
2015,08,19,05,43,13.60
2015,08,19,05,44,13.60
2015,08,19,05,45,13.60
2015,08,19,05,46,13.60
2015,08,19,05,47,13.70
2015,08,19,05,48,13.70
2015,08,19,05,49,13.70
2015,08,19,05,50,13.80
2015,08,19,05,51,13.80
2015,08,19,05,52,13.90
2015,08,19,05,53,13.90
2015,08,19,05,54,13.90
2015,08,19,05,55,14.00
2015,08,19,05,56,14.00
2015,08,19,05,57,14.00
2015,08,19,05,58,14.00
2015,08,19,05,59,14.00
2015,08,19,06,00,14.00
2015,08,19,06,01,14.00
2015,08,19,06,02,13.90
2015,08,19,06,03,13.90
2015,08,19,06,04,13.90
2015,08,19,06,05,13.90
2015,08,19,06,06,13.90
2015,08,19,06,07,13.90
2015,08,19,06,08,13.90
2015,08,19,06,09,13.90
2015,08,19,06,10,13.80
2015,08,19,06,11,13.80
2015,08,19,06,12,13.80
2015,08,19,06,13,13.80
2015,08,19,06,14,13.70
2015,08,19,06,15,13.70
2015,08,19,06,16,13.60
2015,08,19,06,17,13.60
2015,08,19,06,18,13.60
2015,08,19,06,19,13.60
2015,08,19,06,20,13.50
2015,08,19,06,21,13.50
2015,08,19,06,22,13.50
2015,08,19,06,23,13.50
2015,08,19,06,24,13.50
2015,08,19,06,25,13.50
2015,08,19,06,26,13.50
2015,08,19,06,27,13.50
2015,08,19,06,28,13.50
2015,08,19,06,29,13.50
2015,08,19,06,30,13.50
2015,08,19,06,31,13.50
2015,08,19,06,32,13.50
2015,08,19,06,33,13.50
2015,08,19,06,34,13.50
2015,08,19,06,35,13.60
2015,08,19,06,36,13.60
2015,08,19,06,37,13.60
2015,08,19,06,38,13.60
2015,08,19,06,39,13.60
2015,08,19,06,40,13.60
2015,08,19,06,41,13.60
2015,08,19,06,42,13.60
2015,08,19,06,43,13.60
2015,08,19,06,44,13.60
2015,08,19,06,45,13.60
2015,08,19,06,46,13.60
2015,08,19,06,47,13.60
2015,08,19,06,48,13.60
2015,08,19,06,49,13.50
2015,08,19,06,50,13.50
2015,08,19,06,51,13.40
2015,08,19,06,52,13.40
2015,08,19,06,53,13.40
2015,08,19,06,54,13.30
2015,08,19,06,55,13.30
2015,08,19,06,56,13.30
2015,08,19,06,57,13.30
2015,08,19,06,58,13.30
2015,08,19,06,59,13.30
2015,08,19,07,00,13.30
2015,08,19,07,01,13.30
2015,08,19,07,02,13.30
2015,08,19,07,03,13.30
2015,08,19,07,04,13.30
2015,08,19,07,05,13.30
2015,08,19,07,06,13.30
2015,08,19,07,07,13.30
2015,08,19,07,08,13.30
2015,08,19,07,09,13.30
2015,08,19,07,10,13.30
2015,08,19,07,11,13.30
2015,08,19,07,12,13.30
2015,08,19,07,13,13.20
2015,08,19,07,14,13.20
2015,08,19,07,15,13.10
2015,08,19,07,16,13.10
2015,08,19,07,17,13.10
2015,08,19,07,18,13.00
2015,08,19,07,19,13.00
2015,08,19,07,20,13.00
2015,08,19,07,21,13.00
2015,08,19,07,22,13.00
2015,08,19,07,23,13.00
2015,08,19,07,24,13.00
2015,08,19,07,25,13.10
2015,08,19,07,26,13.10
2015,08,19,07,27,13.10
2015,08,19,07,28,13.10
2015,08,19,07,29,13.20
2015,08,19,07,30,13.20
2015,08,19,07,31,13.20
2015,08,19,07,32,13.30
2015,08,19,07,33,13.30
2015,08,19,07,34,13.30
2015,08,19,07,35,13.40
2015,08,19,07,36,13.40
2015,08,19,07,37,13.40
2015,08,19,07,38,13.50
2015,08,19,07,39,13.50
2015,08,19,07,40,13.60
2015,08,19,07,41,13.60
2015,08,19,07,42,13.70
2015,08,19,07,43,13.70
2015,08,19,07,44,13.80
2015,08,19,07,45,13.80
2015,08,19,07,46,13.80
2015,08,19,07,47,13.90
2015,08,19,07,48,13.90
2015,08,19,07,49,14.00
2015,08,19,07,50,14.00
2015,08,19,07,51,14.10
2015,08,19,07,52,14.20
2015,08,19,07,53,14.20
2015,08,19,07,54,14.30
2015,08,19,07,55,14.40
2015,08,19,07,56,14.50
2015,08,19,07,57,14.60
2015,08,19,07,58,14.70
2015,08,19,07,59,14.70
2015,08,19,08,00,14.80
2015,08,19,08,01,14.90
2015,08,19,08,02,14.90
2015,08,19,08,03,15.00
2015,08,19,08,04,15.00
2015,08,19,08,05,15.10
2015,08,19,08,06,15.20
2015,08,19,08,07,15.30
2015,08,19,08,08,15.30
2015,08,19,08,09,15.40
2015,08,19,08,10,15.50
2015,08,19,08,11,15.60
2015,08,19,08,12,15.70
2015,08,19,08,13,15.80
2015,08,19,08,14,15.90
2015,08,19,08,15,16.00
2015,08,19,08,16,16.10
2015,08,19,08,17,16.30
2015,08,19,08,18,16.40
2015,08,19,08,19,16.50
2015,08,19,08,20,16.60
2015,08,19,08,21,16.70
2015,08,19,08,22,16.80
2015,08,19,08,23,16.90
2015,08,19,08,24,17.10
2015,08,19,08,25,17.20
2015,08,19,08,26,17.30
2015,08,19,08,27,17.30
2015,08,19,08,28,17.40
2015,08,19,08,29,17.50
2015,08,19,08,30,17.60
2015,08,19,08,31,17.60
2015,08,19,08,32,17.70
2015,08,19,08,33,17.80
2015,08,19,08,34,17.80
2015,08,19,08,35,17.90
2015,08,19,08,36,18.00
2015,08,19,08,37,18.00
2015,08,19,08,38,18.10
2015,08,19,08,39,18.10
2015,08,19,08,40,18.10
2015,08,19,08,41,18.20
2015,08,19,08,42,18.20
2015,08,19,08,43,18.30
2015,08,19,08,44,18.30
2015,08,19,08,45,18.30
2015,08,19,08,46,18.30
2015,08,19,08,47,18.40
2015,08,19,08,48,18.40
2015,08,19,08,49,18.40
2015,08,19,08,50,18.40
2015,08,19,08,51,18.40
2015,08,19,08,52,18.40
2015,08,19,08,53,18.40
2015,08,19,08,54,18.50
2015,08,19,08,55,18.50
2015,08,19,08,56,18.50
2015,08,19,08,57,18.60
2015,08,19,08,58,18.60
2015,08,19,08,59,18.60
2015,08,19,09,00,18.70
2015,08,19,09,01,18.70
2015,08,19,09,02,18.70
2015,08,19,09,03,18.80
2015,08,19,09,04,18.80
2015,08,19,09,05,18.80
2015,08,19,09,06,18.80
2015,08,19,09,07,18.80
2015,08,19,09,08,18.80
2015,08,19,09,09,18.80
2015,08,19,09,10,18.90
2015,08,19,09,11,18.90
2015,08,19,09,12,18.90
2015,08,19,09,13,18.90
2015,08,19,09,14,19.00
2015,08,19,09,15,19.00
2015,08,19,09,16,19.00
2015,08,19,09,17,19.00
2015,08,19,09,18,19.10
2015,08,19,09,19,19.10
2015,08,19,09,20,19.10
2015,08,19,09,21,19.10
2015,08,19,09,22,19.10
2015,08,19,09,23,19.20
2015,08,19,09,24,19.20
2015,08,19,09,25,19.30
2015,08,19,09,26,19.30
2015,08,19,09,27,19.40
2015,08,19,09,28,19.50
2015,08,19,09,29,19.60
2015,08,19,09,30,19.70
2015,08,19,09,31,19.70
2015,08,19,09,32,19.80
2015,08,19,09,33,19.90
2015,08,19,09,34,19.90
2015,08,19,09,35,20.00
2015,08,19,09,36,20.00
2015,08,19,09,37,20.10
2015,08,19,09,38,20.10
2015,08,19,09,39,20.10
2015,08,19,09,40,20.10
2015,08,19,09,41,20.10
2015,08,19,09,42,20.10
2015,08,19,09,43,20.20
2015,08,19,09,44,20.20
2015,08,19,09,45,20.20
2015,08,19,09,46,20.30
2015,08,19,09,47,20.30
2015,08,19,09,48,20.40
2015,08,19,09,49,20.40
2015,08,19,09,50,20.40
2015,08,19,09,51,20.40
2015,08,19,09,52,20.50
2015,08,19,09,53,20.50
2015,08,19,09,54,20.40
2015,08,19,09,55,20.40
2015,08,19,09,56,20.40
2015,08,19,09,57,20.40
2015,08,19,09,58,20.40
2015,08,19,09,59,20.40
2015,08,19,10,00,20.50
2015,08,19,10,01,20.50
2015,08,19,10,02,20.50
2015,08,19,10,03,20.50
2015,08,19,10,04,20.50
2015,08,19,10,05,20.50
2015,08,19,10,06,20.60
2015,08,19,10,07,20.60
2015,08,19,10,08,20.60
2015,08,19,10,09,20.60
2015,08,19,10,10,20.70
2015,08,19,10,11,20.70
2015,08,19,10,12,20.70
2015,08,19,10,13,20.80
2015,08,19,10,14,20.80
2015,08,19,10,15,20.90
2015,08,19,10,16,20.90
2015,08,19,10,17,21.00
2015,08,19,10,18,21.00
2015,08,19,10,19,21.00
2015,08,19,10,20,21.00
2015,08,19,10,21,21.00
2015,08,19,10,22,21.00
2015,08,19,10,23,21.10
2015,08,19,10,24,21.10
2015,08,19,10,25,21.20
2015,08,19,10,26,21.20
2015,08,19,10,27,21.20
2015,08,19,10,28,21.30
2015,08,19,10,29,21.30
2015,08,19,10,30,21.30
2015,08,19,10,31,21.40
2015,08,19,10,32,21.40
2015,08,19,10,33,21.40
2015,08,19,10,34,21.50
2015,08,19,10,35,21.50
2015,08,19,10,36,21.60
2015,08,19,10,37,21.60
2015,08,19,10,38,21.60
2015,08,19,10,39,21.60
2015,08,19,10,40,21.70
2015,08,19,10,41,21.70
2015,08,19,10,42,21.60
2015,08,19,10,43,21.60
2015,08,19,10,44,21.60
2015,08,19,10,45,21.60
2015,08,19,10,46,21.60
2015,08,19,10,47,21.70
2015,08,19,10,48,21.70
2015,08,19,10,49,21.80
2015,08,19,10,50,21.90
2015,08,19,10,51,21.90
2015,08,19,10,52,22.00
2015,08,19,10,53,22.00
2015,08,19,10,54,22.00
2015,08,19,10,55,21.90
2015,08,19,10,56,21.90
2015,08,19,10,57,21.90
2015,08,19,10,58,21.90
2015,08,19,10,59,22.00
2015,08,19,11,00,22.10
2015,08,19,11,01,22.00
2015,08,19,11,02,22.00
2015,08,19,11,03,21.90
2015,08,19,11,04,21.90
2015,08,19,11,05,21.90
2015,08,19,11,06,21.90
2015,08,19,11,07,22.00
2015,08,19,11,08,22.00
2015,08,19,11,09,22.10
2015,08,19,11,10,22.10
2015,08,19,11,11,22.20
2015,08,19,11,12,22.20
2015,08,19,11,13,22.20
2015,08,19,11,14,22.20
2015,08,19,11,15,22.20
2015,08,19,11,16,22.20
2015,08,19,11,17,22.20
2015,08,19,11,18,22.20
2015,08,19,11,19,22.20
2015,08,19,11,20,22.20
2015,08,19,11,21,22.30
2015,08,19,11,22,22.40
2015,08,19,11,23,22.40
2015,08,19,11,24,22.50
2015,08,19,11,25,22.50
2015,08,19,11,26,22.60
2015,08,19,11,27,22.60
2015,08,19,11,28,22.70
2015,08,19,11,29,22.80
2015,08,19,11,30,22.80
2015,08,19,11,31,22.80
2015,08,19,11,32,22.90
2015,08,19,11,33,22.90
2015,08,19,11,34,23.00
2015,08,19,11,35,23.00
2015,08,19,11,36,23.10
2015,08,19,11,37,23.10
2015,08,19,11,38,23.10
2015,08,19,11,39,23.10
2015,08,19,11,40,23.10
2015,08,19,11,41,23.20
2015,08,19,11,42,23.20
2015,08,19,11,43,23.30
2015,08,19,11,44,23.30
2015,08,19,11,45,23.30
2015,08,19,11,46,23.30
2015,08,19,11,47,23.30
2015,08,19,11,48,23.30
2015,08,19,11,49,23.30
2015,08,19,11,50,23.30
2015,08,19,11,51,23.40
2015,08,19,11,52,23.40
2015,08,19,11,53,23.40
2015,08,19,11,54,23.40
2015,08,19,11,55,23.30
2015,08,19,11,56,23.30
2015,08,19,11,57,23.20
2015,08,19,11,58,23.20
2015,08,19,11,59,23.30
2015,08,19,12,00,23.30
2015,08,19,12,01,23.40
2015,08,19,12,02,23.40
2015,08,19,12,03,23.50
2015,08,19,12,04,23.60
2015,08,19,12,05,23.60
2015,08,19,12,06,23.70
2015,08,19,12,07,23.70
2015,08,19,12,08,23.70
2015,08,19,12,09,23.70
2015,08,19,12,10,23.70
2015,08,19,12,11,23.70
2015,08,19,12,12,23.60
2015,08,19,12,13,23.50
2015,08,19,12,14,23.50
2015,08,19,12,15,23.50
2015,08,19,12,16,23.50
2015,08,19,12,17,23.50
2015,08,19,12,18,23.50
2015,08,19,12,19,23.60
2015,08,19,12,20,23.60
2015,08,19,12,21,23.70
2015,08,19,12,22,23.80
2015,08,19,12,23,23.80
2015,08,19,12,24,23.80
2015,08,19,12,25,23.90
2015,08,19,12,26,23.90
2015,08,19,12,27,23.90
2015,08,19,12,28,24.00
2015,08,19,12,29,24.00
2015,08,19,12,30,24.00
2015,08,19,12,31,24.10
2015,08,19,12,32,24.10
2015,08,19,12,33,24.10
2015,08,19,12,34,24.10
2015,08,19,12,35,24.20
2015,08,19,12,36,24.20
2015,08,19,12,37,24.20
2015,08,19,12,38,24.20
2015,08,19,12,39,24.30
2015,08,19,12,40,24.30
2015,08,19,12,41,24.30
2015,08,19,12,42,24.40
2015,08,19,12,43,24.40
2015,08,19,12,44,24.40
2015,08,19,12,45,24.40
2015,08,19,12,46,24.40
2015,08,19,12,47,24.40
2015,08,19,12,48,24.30
2015,08,19,12,49,24.20
2015,08,19,12,50,24.20
2015,08,19,12,51,24.10
2015,08,19,12,52,23.90
2015,08,19,12,53,23.80
2015,08,19,12,54,23.70
2015,08,19,12,55,23.60
2015,08,19,12,56,23.40
2015,08,19,12,57,23.30
2015,08,19,12,58,23.30
2015,08,19,12,59,23.30
2015,08,19,13,00,23.30
2015,08,19,13,01,23.40
2015,08,19,13,02,23.40
2015,08,19,13,03,23.40
2015,08,19,13,04,23.40
2015,08,19,13,05,23.40
2015,08,19,13,06,23.30
2015,08,19,13,07,23.30
2015,08,19,13,08,23.30
2015,08,19,13,09,23.30
2015,08,19,13,10,23.30
2015,08,19,13,11,23.30
2015,08,19,13,12,23.20
2015,08,19,13,13,23.20
2015,08,19,13,14,23.20
2015,08,19,13,15,23.10
2015,08,19,13,16,23.10
2015,08,19,13,17,23.10
2015,08,19,13,18,23.10
2015,08,19,13,19,23.10
2015,08,19,13,20,23.10
2015,08,19,13,21,23.20
2015,08,19,13,22,23.20
2015,08,19,13,23,23.20
2015,08,19,13,24,23.20
2015,08,19,13,25,23.30
2015,08,19,13,26,23.30
2015,08,19,13,27,23.30
2015,08,19,13,28,23.30
2015,08,19,13,29,23.30
2015,08,19,13,30,23.20
2015,08,19,13,31,23.20
2015,08,19,13,32,23.20
2015,08,19,13,33,23.20
2015,08,19,13,34,23.20
2015,08,19,13,35,23.20
2015,08,19,13,36,23.30
2015,08,19,13,37,23.30
2015,08,19,13,38,23.40
2015,08,19,13,39,23.40
2015,08,19,13,40,23.30
2015,08,19,13,41,23.30
2015,08,19,13,42,23.40
2015,08,19,13,43,23.40
2015,08,19,13,44,23.50
2015,08,19,13,45,23.60
2015,08,19,13,46,23.70
2015,08,19,13,47,23.80
2015,08,19,13,48,23.90
2015,08,19,13,49,23.90
2015,08,19,13,50,23.90
2015,08,19,13,51,23.90
2015,08,19,13,52,23.90
2015,08,19,13,53,23.90
2015,08,19,13,54,23.90
2015,08,19,13,55,23.90
2015,08,19,13,56,23.90
2015,08,19,13,57,23.90
2015,08,19,13,58,24.00
2015,08,19,13,59,23.90
2015,08,19,14,00,23.90
2015,08,19,14,01,24.00
2015,08,19,14,02,24.00
2015,08,19,14,03,23.90
2015,08,19,14,04,23.90
2015,08,19,14,05,24.00
2015,08,19,14,06,24.00
2015,08,19,14,07,24.10
2015,08,19,14,08,24.10
2015,08,19,14,09,24.10
2015,08,19,14,10,24.10
2015,08,19,14,11,24.10
2015,08,19,14,12,24.10
2015,08,19,14,13,24.10
2015,08,19,14,14,24.20
2015,08,19,14,15,24.20
2015,08,19,14,16,24.30
2015,08,19,14,17,24.30
2015,08,19,14,18,24.40
2015,08,19,14,19,24.40
2015,08,19,14,20,24.30
2015,08,19,14,21,24.30
2015,08,19,14,22,24.30
2015,08,19,14,23,24.20
2015,08,19,14,24,24.20
2015,08,19,14,25,24.30
2015,08,19,14,26,24.30
2015,08,19,14,27,24.40
2015,08,19,14,28,24.40
2015,08,19,14,29,24.40
2015,08,19,14,30,24.50
2015,08,19,14,31,24.50
2015,08,19,14,32,24.60
2015,08,19,14,33,24.70
2015,08,19,14,34,24.80
2015,08,19,14,35,24.90
2015,08,19,14,36,25.00
2015,08,19,14,37,25.00
2015,08,19,14,38,25.00
2015,08,19,14,39,24.90
2015,08,19,14,40,25.00
2015,08,19,14,41,25.00
2015,08,19,14,42,24.90
2015,08,19,14,43,24.90
2015,08,19,14,44,25.00
2015,08,19,14,45,25.10
2015,08,19,14,46,25.10
2015,08,19,14,47,25.20
2015,08,19,14,48,25.10
2015,08,19,14,49,25.10
2015,08,19,14,50,25.10
2015,08,19,14,51,25.10
2015,08,19,14,52,25.00
2015,08,19,14,53,24.90
2015,08,19,14,54,24.90
2015,08,19,14,55,24.80
2015,08,19,14,56,24.90
2015,08,19,14,57,24.90
2015,08,19,14,58,25.00
2015,08,19,14,59,24.90
2015,08,19,15,00,24.90
2015,08,19,15,01,24.80
2015,08,19,15,02,24.80
2015,08,19,15,03,24.80
2015,08,19,15,04,24.80
2015,08,19,15,05,24.80
2015,08,19,15,06,24.80
2015,08,19,15,07,24.80
2015,08,19,15,08,24.80
2015,08,19,15,09,24.70
2015,08,19,15,10,24.70
2015,08,19,15,11,24.70
2015,08,19,15,12,24.70
2015,08,19,15,13,24.80
2015,08,19,15,14,24.80
2015,08,19,15,15,24.80
2015,08,19,15,16,24.80
2015,08,19,15,17,24.80
2015,08,19,15,18,24.80
2015,08,19,15,19,24.80
2015,08,19,15,20,24.80
2015,08,19,15,21,24.80
2015,08,19,15,22,24.80
2015,08,19,15,23,24.80
2015,08,19,15,24,24.80
2015,08,19,15,25,24.80
2015,08,19,15,26,24.90
2015,08,19,15,27,24.90
2015,08,19,15,28,24.90
2015,08,19,15,29,24.90
2015,08,19,15,30,24.80
2015,08,19,15,31,24.80
2015,08,19,15,32,24.90
2015,08,19,15,33,24.90
2015,08,19,15,34,24.90
2015,08,19,15,35,24.90
2015,08,19,15,36,24.80
2015,08,19,15,37,24.80
2015,08,19,15,38,24.90
2015,08,19,15,39,25.00
2015,08,19,15,40,24.90
2015,08,19,15,41,24.90
2015,08,19,15,42,24.90
2015,08,19,15,43,24.80
2015,08,19,15,44,24.90
2015,08,19,15,45,24.90
2015,08,19,15,46,24.90
2015,08,19,15,47,25.00
2015,08,19,15,48,24.80
2015,08,19,15,49,24.80
2015,08,19,15,50,24.80
2015,08,19,15,51,24.70
2015,08,19,15,52,24.70
2015,08,19,15,53,24.60
2015,08,19,15,54,24.60
2015,08,19,15,55,24.60
2015,08,19,15,56,24.60
2015,08,19,15,57,24.60
2015,08,19,15,58,24.60
2015,08,19,15,59,24.60
2015,08,19,16,00,24.60
2015,08,19,16,01,24.60
2015,08,19,16,02,24.60
2015,08,19,16,03,24.60
2015,08,19,16,04,24.50
2015,08,19,16,05,24.40
2015,08,19,16,06,24.30
2015,08,19,16,07,24.20
2015,08,19,16,08,24.20
2015,08,19,16,09,24.20
2015,08,19,16,10,24.20
2015,08,19,16,11,24.30
2015,08,19,16,12,24.30
2015,08,19,16,13,24.40
2015,08,19,16,14,24.50
2015,08,19,16,15,24.50
2015,08,19,16,16,24.50
2015,08,19,16,17,24.40
2015,08,19,16,18,24.40
2015,08,19,16,19,24.40
2015,08,19,16,20,24.30
2015,08,19,16,21,24.30
2015,08,19,16,22,24.20
2015,08,19,16,23,24.30
2015,08,19,16,24,24.30
2015,08,19,16,25,24.30
2015,08,19,16,26,24.30
2015,08,19,16,27,24.30
2015,08,19,16,28,24.30
2015,08,19,16,29,24.40
2015,08,19,16,30,24.40
2015,08,19,16,31,24.40
2015,08,19,16,32,24.30
2015,08,19,16,33,24.30
2015,08,19,16,34,24.30
2015,08,19,16,35,24.30
2015,08,19,16,36,24.30
2015,08,19,16,37,24.40
2015,08,19,16,38,24.40
2015,08,19,16,39,24.40
2015,08,19,16,40,24.40
2015,08,19,16,41,24.50
2015,08,19,16,42,24.50
2015,08,19,16,43,24.50
2015,08,19,16,44,24.50
2015,08,19,16,45,24.50
2015,08,19,16,46,24.60
2015,08,19,16,47,24.50
2015,08,19,16,48,24.50
2015,08,19,16,49,24.50
2015,08,19,16,50,24.50
2015,08,19,16,51,24.50
2015,08,19,16,52,24.50
2015,08,19,16,53,24.50
2015,08,19,16,54,24.50
2015,08,19,16,55,24.50
2015,08,19,16,56,24.60
2015,08,19,16,57,24.60
2015,08,19,16,58,24.60
2015,08,19,16,59,24.60
2015,08,19,17,00,24.60
2015,08,19,17,01,24.60
2015,08,19,17,02,24.50
2015,08,19,17,03,24.50
2015,08,19,17,04,24.40
2015,08,19,17,05,24.40
2015,08,19,17,06,24.40
2015,08,19,17,07,24.40
2015,08,19,17,08,24.30
2015,08,19,17,09,24.30
2015,08,19,17,10,24.30
2015,08,19,17,11,24.20
2015,08,19,17,12,24.10
2015,08,19,17,13,24.00
2015,08,19,17,14,23.90
2015,08,19,17,15,23.80
2015,08,19,17,16,23.80
2015,08,19,17,17,23.70
2015,08,19,17,18,23.70
2015,08,19,17,19,23.60